Date,TemperatureHighF,TemperatureAvgF,TemperatureLowF,DewpointHighF,DewpointAvgF,DewpointLowF,HumidityHigh,HumidityAvg,HumidityLow,PressureMaxIn,PressureMinIn,WindSpeedMaxMPH,WindSpeedAvgMPH,GustSpeedMaxMPH,PrecipitationSumIn
2013-10-1,38.1,33.1,29.0,33.3,30.7,27.2,96,91,81,29.87,29.78,2,0,5,0.00
2013-10-2,45.4,36.1,29.7,36.4,32.1,27.5,94,86,66,29.87,29.77,7,0,7,0.00
2013-10-3,51.7,36.1,26.5,37.7,31.0,24.8,96,83,54,29.78,29.54,7,0,7,0.00
2013-10-4,38.4,32.3,26.8,33.9,29.6,24.8,95,90,82,29.78,29.52,4,0,4,0.00
2013-10-5,43.2,33.2,24.7,35.1,29.8,22.7,95,87,72,29.79,29.61,13,1,13,0.00
2013-10-6,43.2,35.2,29.4,34.7,31.0,27.2,95,85,69,29.65,29.58,10,2,10,0.00
2013-10-7,36.8,32.9,25.6,34.4,31.3,24.1,96,94,90,29.80,29.65,7,0,7,0.03
2013-10-8,48.9,40.6,25.5,37.5,33.3,23.8,96,76,60,29.66,28.90,19,3,19,0.02
2013-10-9,39.8,36.2,34.4,37.4,34.6,31.4,96,94,89,29.63,28.91,29,6,29,0.14
2013-10-10,37.6,31.0,23.8,32.3,28.3,22.1,96,90,79,29.65,29.56,17,1,20,0.00
2013-10-11,43.6,32.5,24.8,35.2,28.8,23.1,96,87,67,29.77,29.62,6,0,9,0.00
2013-10-12,50.6,35.0,25.1,38.3,30.2,23.2,96,84,58,29.75,29.61,8,1,9,0.00
2013-10-13,45.2,40.5,34.1,37.5,33.5,29.3,94,76,61,29.61,29.31,15,2,17,0.07
2013-10-14,44.1,35.8,29.9,39.7,33.7,28.5,97,92,80,29.85,29.51,20,1,21,0.01
2013-10-15,46.3,37.4,30.4,41.3,35.4,29.0,97,93,79,29.86,29.74,5,0,5,0.01
2013-10-16,50.8,42.8,37.8,45.2,39.9,36.1,96,90,74,30.00,29.82,5,0,6,0.00
2013-10-17,45.8,39.2,34.4,45.0,37.9,32.6,97,95,91,29.90,29.62,6,0,7,0.02
2013-10-18,46.0,36.7,30.1,43.8,35.3,28.3,100,95,86,29.62,29.50,7,0,7,0.00
2013-10-19,53.9,40.0,27.4,44.1,33.1,26.1,97,78,53,29.50,29.22,28,3,31,0.03
2013-10-20,45.4,33.1,27.5,38.9,30.2,25.6,96,89,71,29.82,29.49,4,0,4,0.00
2013-10-21,34.3,26.2,19.5,30.4,24.0,17.0,95,91,82,30.04,29.81,4,0,4,0.00
2013-10-22,34.2,23.5,17.1,28.1,20.6,14.9,94,89,77,30.13,30.03,5,0,5,0.00
2013-10-23,30.3,24.6,17.4,26.6,22.2,14.9,93,90,85,30.10,29.82,6,0,7,0.00
2013-10-24,34.6,27.8,17.7,25.4,22.5,15.3,94,81,63,29.92,29.61,19,2,20,0.00
2013-10-25,38.3,30.0,20.3,28.1,23.8,17.3,88,78,65,30.10,29.62,8,1,11,0.00
2013-10-26,30.2,19.0,10.2,25.8,16.0,7.0,92,88,82,30.44,30.10,6,0,6,0.00
2013-10-27,38.5,34.4,18.9,36.9,27.9,16.6,95,78,57,30.29,29.57,15,2,16,0.03
2013-10-28,49.1,40.1,36.6,42.7,37.8,34.8,96,91,74,29.57,28.93,20,3,20,0.05
2013-10-29,37.7,33.5,25.1,36.3,32.5,23.9,97,96,95,29.46,29.19,22,2,22,0.26
2013-10-30,32.6,26.9,21.9,31.8,25.8,20.4,97,96,94,29.42,29.11,7,1,7,0.00
2013-10-31,27.9,24.5,19.7,26.7,23.3,18.0,96,95,93,29.63,29.19,3,0,3,0.00